When you browse on this site, cookies collect data to enhance your experience and personalize the content and advertising you see.
Visit our Privacy Policy to learn more. By continuing to use the site, you agree to this use of cookies and data.
  • In Hungary
  • List of Countries
  • For 7 days
  • Water Temperature
  • Weather Map
  • News
  • Weather Widgets
  • user-avatar
    Login

    Hourly Weather Afzalgarh

    Today, 9 December, Monday

    Time Temperature Precipitation Wind Pressure Humidity
    00:00 +15°C° 0 mm 1 mps 743 mmHg 66%
    01:00 +15°C° 0 mm 1 mps 743 mmHg 67%
    02:00 +14°C° 0 mm 1 mps 743 mmHg 67%
    03:00 +14°C° 0 mm 1 mps 742 mmHg 68%
    04:00 +13°C° 0 mm 0 mps 742 mmHg 68%
    05:00 +12°C° 0 mm 0 mps 742 mmHg 73%
    06:00 +13°C° 0 mm 0 mps 743 mmHg 69%
    07:00 +14°C° 0 mm 0 mps 743 mmHg 64%
    08:00 +15°C° 0 mm 0 mps 744 mmHg 60%
    09:00 +17°C° 0 mm 0 mps 744 mmHg 55%
    10:00 +21°C° 0 mm 1 mps 744 mmHg 49%
    11:00 +23°C° 0 mm 1 mps 744 mmHg 44%
    12:00 +23°C° 0 mm 1 mps 743 mmHg 41%
    13:00 +24°C° 0 mm 2 mps 742 mmHg 38%
    14:00 +24°C° 0 mm 2 mps 741 mmHg 35%
    15:00 +23°C° 0 mm 2 mps 741 mmHg 40%
    16:00 +20°C° 0 mm 2 mps 741 mmHg 46%
    17:00 +18°C° 0 mm 2 mps 741 mmHg 51%
    18:00 +18°C° 0 mm 1 mps 741 mmHg 54%
    19:00 +18°C° 0 mm 1 mps 742 mmHg 57%
    20:00 +16°C° 0 mm 1 mps 742 mmHg 60%
    21:00 +15°C° 0 mm 1 mps 742 mmHg 62%
    22:00 +15°C° 0 mm 1 mps 742 mmHg 65%
    23:00 +15°C° 0 mm 1 mps 741 mmHg 67%

    Tomorrow, 10 December, Tuesday

    Time Temperature Precipitation Wind Pressure Humidity
    00:00 +14°C° 0 mm 1 mps 741 mmHg 68%
    01:00 +14°C° 0 mm 1 mps 741 mmHg 70%
    02:00 +14°C° 0 mm 1 mps 741 mmHg 71%
    03:00 +14°C° 0 mm 1 mps 741 mmHg 72%
    04:00 +13°C° 0 mm 1 mps 740 mmHg 73%
    05:00 +13°C° 0 mm 1 mps 740 mmHg 74%
    06:00 +14°C° 0 mm 1 mps 741 mmHg 70%
    07:00 +15°C° 0 mm 1 mps 741 mmHg 66%
    08:00 +15°C° 0 mm 0 mps 741 mmHg 62%
    09:00 +19°C° 0 mm 1 mps 741 mmHg 55%
    10:00 +21°C° 0 mm 1 mps 741 mmHg 48%
    11:00 +23°C° 0 mm 2 mps 741 mmHg 40%
    12:00 +23°C° 0 mm 2 mps 740 mmHg 37%
    13:00 +24°C° 0 mm 2 mps 739 mmHg 34%
    14:00 +25°C° 0 mm 3 mps 739 mmHg 31%
    15:00 +23°C° 0 mm 2 mps 739 mmHg 36%
    16:00 +20°C° 0 mm 2 mps 739 mmHg 41%
    17:00 +19°C° 0 mm 1 mps 738 mmHg 45%
    18:00 +18°C° 0 mm 1 mps 739 mmHg 48%
    19:00 +16°C° 0 mm 1 mps 739 mmHg 51%
    20:00 +15°C° 0 mm 1 mps 740 mmHg 54%
    21:00 +15°C° 0 mm 1 mps 740 mmHg 57%
    22:00 +15°C° 0 mm 1 mps 740 mmHg 59%
    23:00 +14°C° 0 mm 1 mps 740 mmHg 62%

    Day after tomorrow, 11 December, Wednesday

    Time Temperature Precipitation Wind Pressure Humidity
    00:00 +14°C° 0 mm 1 mps 740 mmHg 63%
    01:00 +14°C° 0 mm 1 mps 739 mmHg 65%
    02:00 +13°C° 0 mm 1 mps 739 mmHg 66%
    03:00 +13°C° 0 mm 1 mps 739 mmHg 67%
    04:00 +12°C° 0 mm 0 mps 739 mmHg 68%
    05:00 +12°C° 0 mm 0 mps 739 mmHg 69%
    06:00 +13°C° 0 mm 0 mps 739 mmHg 66%
    07:00 +14°C° 0 mm 0 mps 740 mmHg 63%
    08:00 +15°C° 0 mm 0 mps 740 mmHg 59%
    09:00 +19°C° 0 mm 1 mps 740 mmHg 52%
    10:00 +21°C° 0 mm 1 mps 740 mmHg 44%
    11:00 +23°C° 0 mm 1 mps 740 mmHg 36%
    12:00 +23°C° 0 mm 1 mps 739 mmHg 34%
    13:00 +24°C° 0 mm 1 mps 739 mmHg 32%
    14:00 +24°C° 0 mm 2 mps 738 mmHg 30%
    15:00 +23°C° 0 mm 1 mps 738 mmHg 32%
    16:00 +21°C° 0 mm 1 mps 738 mmHg 35%
    17:00 +20°C° 0 mm 1 mps 738 mmHg 38%
    18:00 +19°C° 0 mm 1 mps 739 mmHg 38%
    19:00 +19°C° 0 mm 1 mps 739 mmHg 39%
    20:00 +19°C° 0 mm 1 mps 740 mmHg 40%
    21:00 +19°C° 0 mm 1 mps 740 mmHg 40%
    22:00 +18°C° 0 mm 1 mps 740 mmHg 41%
    23:00 +18°C° 0 mm 1 mps 740 mmHg 42%

    12 December, Thursday

    Time Temperature Precipitation Wind Pressure Humidity
    00:00 +18°C° 0 mm 1 mps 740 mmHg 43%
    01:00 +18°C° 0 mm 1 mps 739 mmHg 43%
    02:00 +17°C° 0 mm 2 mps 739 mmHg 43%
    03:00 +17°C° 0 mm 2 mps 739 mmHg 43%
    04:00 +18°C° 0 mm 1 mps 739 mmHg 43%
    05:00 +18°C° 0 mm 1 mps 739 mmHg 43%
    06:00 +18°C° 0 mm 1 mps 740 mmHg 43%
    07:00 +18°C° 0 mm 2 mps 740 mmHg 43%
    08:00 +19°C° 0 mm 2 mps 741 mmHg 42%
    09:00 +19°C° 0 mm 2 mps 741 mmHg 43%
    10:00 +20°C° 0 mm 2 mps 741 mmHg 43%
    11:00 +21°C° 0 mm 1 mps 741 mmHg 43%
    12:00 +20°C° 0.2 mm 2 mps 741 mmHg 50%
    13:00 +19°C° 0.2 mm 3 mps 740 mmHg 58%
    14:00 +18°C° 0.2 mm 4 mps 740 mmHg 65%
    15:00 +18°C° 0.2 mm 4 mps 740 mmHg 65%
    16:00 +17°C° 0.2 mm 3 mps 739 mmHg 66%
    17:00 +17°C° 0.2 mm 3 mps 739 mmHg 66%
    18:00 +17°C° 0 mm 4 mps 740 mmHg 65%
    19:00 +17°C° 0 mm 4 mps 740 mmHg 65%
    20:00 +17°C° 0 mm 4 mps 741 mmHg 64%
    21:00 +15°C° 0.3 mm 4 mps 741 mmHg 68%
    22:00 +14°C° 0.3 mm 3 mps 741 mmHg 71%
    23:00 +15°C° 0.3 mm 2 mps 741 mmHg 75%

    13 December, Friday

    Time Temperature Precipitation Wind Pressure Humidity
    00:00 +14°C° 1.1 mm 3 mps 741 mmHg 78%
    01:00 +13°C° 1.1 mm 4 mps 740 mmHg 81%
    02:00 +13°C° 1.1 mm 6 mps 740 mmHg 84%
    03:00 +14°C° 0.4 mm 5 mps 740 mmHg 81%
    04:00 +14°C° 0.4 mm 4 mps 740 mmHg 78%
    05:00 +14°C° 0.4 mm 3 mps 740 mmHg 75%
    06:00 +14°C° 0.1 mm 3 mps 741 mmHg 74%
    07:00 +15°C° 0.1 mm 4 mps 741 mmHg 72%
    08:00 +15°C° 0.1 mm 4 mps 742 mmHg 71%
    09:00 +16°C° 0.1 mm 5 mps 742 mmHg 66%
    10:00 +19°C° 0.1 mm 6 mps 742 mmHg 61%
    11:00 +20°C° 0.1 mm 7 mps 742 mmHg 56%
    12:00 +20°C° 0.5 mm 7 mps 742 mmHg 58%
    13:00 +18°C° 0.5 mm 7 mps 741 mmHg 59%
    14:00 +18°C° 0.5 mm 7 mps 741 mmHg 61%
    15:00 +17°C° 0.5 mm 6 mps 741 mmHg 66%
    16:00 +17°C° 0.5 mm 4 mps 741 mmHg 71%
    17:00 +16°C° 0.5 mm 3 mps 741 mmHg 75%
    18:00 +16°C° 0.6 mm 3 mps 742 mmHg 78%
    19:00 +14°C° 0.6 mm 3 mps 742 mmHg 80%
    20:00 +15°C° 0.6 mm 2 mps 743 mmHg 82%
    21:00 +15°C° 0.4 mm 2 mps 743 mmHg 84%
    22:00 +15°C° 0.4 mm 1 mps 743 mmHg 86%
    23:00 +14°C° 0.4 mm 1 mps 744 mmHg 87%

    14 December, Saturday

    Time Temperature Precipitation Wind Pressure Humidity
    00:00 +14°C° 0.4 mm 1 mps 744 mmHg 88%
    01:00 +14°C° 0.4 mm 1 mps 744 mmHg 88%
    02:00 +13°C° 0.4 mm 1 mps 744 mmHg 89%
    03:00 +13°C° 0.1 mm 1 mps 744 mmHg 89%
    04:00 +13°C° 0.1 mm 1 mps 744 mmHg 88%
    05:00 +13°C° 0.1 mm 1 mps 744 mmHg 88%
    06:00 +14°C° 0 mm 1 mps 744 mmHg 84%
    07:00 +15°C° 0 mm 1 mps 745 mmHg 81%
    08:00 +15°C° 0 mm 1 mps 745 mmHg 77%
    09:00 +18°C° 0 mm 1 mps 745 mmHg 70%
    10:00 +20°C° 0 mm 1 mps 745 mmHg 63%
    11:00 +22°C° 0 mm 1 mps 745 mmHg 55%
    12:00 +22°C° 0 mm 1 mps 744 mmHg 53%
    13:00 +23°C° 0 mm 2 mps 743 mmHg 50%
    14:00 +23°C° 0 mm 2 mps 743 mmHg 48%
    15:00 +21°C° 0 mm 2 mps 743 mmHg 54%
    16:00 +19°C° 0 mm 2 mps 742 mmHg 60%
    17:00 +18°C° 0 mm 2 mps 742 mmHg 66%
    18:00 +17°C° 0 mm 2 mps 743 mmHg 69%
    19:00 +16°C° 0 mm 2 mps 743 mmHg 71%
    20:00 +16°C° 0 mm 2 mps 743 mmHg 74%
    21:00 +15°C° 0 mm 2 mps 743 mmHg 74%
    22:00 +15°C° 0 mm 2 mps 743 mmHg 75%
    23:00 +15°C° 0 mm 2 mps 744 mmHg 75%
    Show more